SL-14 DEB, 45654

Orbit data source: Space-Track

SL-14 DEB, 45654 is space debris in LEO originally from a launch on Thu, 15 Aug 1991 UTC launched from the Plesetsk Missile And Space Complex (PKMTR). Debris objects in space refer to the collection of defunct objects orbiting the Earth. Examples of debris include non-operational satellites, rocket bodies, and fragments generated from explosions, collisions, or faulty payload assembly.

Loading next visibility...
Identifier
45654, 1991-056CY
Orbit
LEO
Country
Flag of CISCIS
Related business
Manufacturer
Unknown
Mission
Spacecraft
Bus & Motor
Unknown
Mass
Unknown
Launch date (UTC)
1991-08-15 (34 years ago)
Launch vehicle
Unknown
Launch site
Plesetsk Missile And Space Complex (PKMTR)
Object type
Payload
Rocket body
Debris
Shape & HBR
Unknown shape, 0.1 m
Radar Cross Section
Small (<0.1 m²)

Expand to show TLE details & history
Last TLE update: 2 days ago

TLE from 2 days ago
0 SL-14 DEB
1 45654U 91056CY  25285.45452119  .00000480  00000-0  11028-2 0  9994
2 45654  82.5730 305.0217 0024348 302.2108  57.6658 13.23482126271803
Epoch: 2025-10-12T10:54Z
TLE epoch observation values (Epoch: 2025-10-12T10:54:30.630Z)
Latitude
0.00002°
Longitude
120.12266°
Altitude
1,164.464 km
Speed
7.276 km/s
True Right ascension
20h 20m 05s
True Declination
0° 00' 00"
Sunlit
Object was in daylight at epoch
Visualization orbit readout
Latitude
Unknown
Longitude
Unknown
Altitude
Unknown
Speed
Unknown
Apparent Right ascension
Unknown
Apparent Declination
Unknown
Sunlit
N/A
Visualization observer readout
Local Sidereal Time
02:50:22
Azimuth
Unknown
Elevation
Unknown
Doppler factor
Unknown
Orbital elements
Apogee altitude
1,187.058 km
Perigee altitude
1,150.308 km
Semi-major axis
7,546.82 km
Eccentricity
0.00243
Inclination
82.573°
RAAN
305.0217°
Arg. of periapsis
302.2108°
True anomaly
57.90193°
Mean anomaly
57.6658°
Eccentric anomaly
57.78383°
Mean motion
3.31053 °/min
Orbital period
108.74 mins
BSTAR
0.0011028
Loading maneuver chart data...
Computing Atmospheric mass density...
Loading historical data...
Loading historical data...
Loading historical data...
Loading historical data...
Loading historical data...
Loading historical data...
Loading historical data...

Documentation

Showing up to 5 results
|